Year,Month,Day,Hour,Minute,Value (Times are PST for temperature in C)
2014,03,10,00,00,6.80
2014,03,10,00,01,6.80
2014,03,10,00,02,6.80
2014,03,10,00,03,6.80
2014,03,10,00,04,6.80
2014,03,10,00,05,6.80
2014,03,10,00,06,6.80
2014,03,10,00,07,6.80
2014,03,10,00,08,6.80
2014,03,10,00,09,6.80
2014,03,10,00,10,6.80
2014,03,10,00,11,6.80
2014,03,10,00,12,6.80
2014,03,10,00,13,6.80
2014,03,10,00,14,6.80
2014,03,10,00,15,6.80
2014,03,10,00,16,6.80
2014,03,10,00,17,6.80
2014,03,10,00,18,6.80
2014,03,10,00,19,6.80
2014,03,10,00,20,6.80
2014,03,10,00,21,6.90
2014,03,10,00,22,6.90
2014,03,10,00,23,6.90
2014,03,10,00,24,6.90
2014,03,10,00,25,6.90
2014,03,10,00,26,6.90
2014,03,10,00,27,6.90
2014,03,10,00,28,6.80
2014,03,10,00,29,6.80
2014,03,10,00,30,6.80
2014,03,10,00,31,6.80
2014,03,10,00,32,6.80
2014,03,10,00,33,6.80
2014,03,10,00,34,6.80
2014,03,10,00,35,6.80
2014,03,10,00,36,6.80
2014,03,10,00,37,6.80
2014,03,10,00,38,6.80
2014,03,10,00,39,6.80
2014,03,10,00,40,6.80
2014,03,10,00,41,6.80
2014,03,10,00,42,6.80
2014,03,10,00,43,6.80
2014,03,10,00,44,6.80
2014,03,10,00,45,6.80
2014,03,10,00,46,6.80
2014,03,10,00,47,6.70
2014,03,10,00,48,6.70
2014,03,10,00,49,6.70
2014,03,10,00,50,6.70
2014,03,10,00,51,6.70
2014,03,10,00,52,6.80
2014,03,10,00,53,6.80
2014,03,10,00,54,6.80
2014,03,10,00,55,6.80
2014,03,10,00,56,6.80
2014,03,10,00,57,6.80
2014,03,10,00,58,6.80
2014,03,10,00,59,6.80
2014,03,10,01,00,6.80
2014,03,10,01,01,6.80
2014,03,10,01,02,6.70
2014,03,10,01,03,6.70
2014,03,10,01,04,6.70
2014,03,10,01,05,6.70
2014,03,10,01,06,6.70
2014,03,10,01,07,6.70
2014,03,10,01,08,6.70
2014,03,10,01,09,6.70
2014,03,10,01,10,6.70
2014,03,10,01,11,6.60
2014,03,10,01,12,6.60
2014,03,10,01,13,6.60
2014,03,10,01,14,6.60
2014,03,10,01,15,6.60
2014,03,10,01,16,6.60
2014,03,10,01,17,6.60
2014,03,10,01,18,6.60
2014,03,10,01,19,6.60
2014,03,10,01,20,6.50
2014,03,10,01,21,6.50
2014,03,10,01,22,6.50
2014,03,10,01,23,6.50
2014,03,10,01,24,6.50
2014,03,10,01,25,6.40
2014,03,10,01,26,6.40
2014,03,10,01,27,6.40
2014,03,10,01,28,6.40
2014,03,10,01,29,6.40
2014,03,10,01,30,6.40
2014,03,10,01,31,6.30
2014,03,10,01,32,6.30
2014,03,10,01,33,6.30
2014,03,10,01,34,6.30
2014,03,10,01,35,6.30
2014,03,10,01,36,6.30
2014,03,10,01,37,6.30
2014,03,10,01,38,6.30
2014,03,10,01,39,6.30
2014,03,10,01,40,6.30
2014,03,10,01,41,6.30
2014,03,10,01,42,6.20
2014,03,10,01,43,6.20
2014,03,10,01,44,6.20
2014,03,10,01,45,6.20
2014,03,10,01,46,6.20
2014,03,10,01,47,6.10
2014,03,10,01,48,6.10
2014,03,10,01,49,6.10
2014,03,10,01,50,6.10
2014,03,10,01,51,6.10
2014,03,10,01,52,6.10
2014,03,10,01,53,6.10
2014,03,10,01,54,6.10
2014,03,10,01,55,6.10
2014,03,10,01,56,6.10
2014,03,10,01,57,6.00
2014,03,10,01,58,6.00
2014,03,10,01,59,6.00
2014,03,10,02,00,6.00
2014,03,10,02,01,6.00
2014,03,10,02,02,6.00
2014,03,10,02,03,6.00
2014,03,10,02,04,5.90
2014,03,10,02,05,5.90
2014,03,10,02,06,5.90
2014,03,10,02,07,5.90
2014,03,10,02,08,5.80
2014,03,10,02,09,5.80
2014,03,10,02,10,5.80
2014,03,10,02,11,5.80
2014,03,10,02,12,5.80
2014,03,10,02,13,5.80
2014,03,10,02,14,5.70
2014,03,10,02,15,5.70
2014,03,10,02,16,5.70
2014,03,10,02,17,5.70
2014,03,10,02,18,5.70
2014,03,10,02,19,5.70
2014,03,10,02,20,5.70
2014,03,10,02,21,5.70
2014,03,10,02,22,5.70
2014,03,10,02,23,5.70
2014,03,10,02,24,5.70
2014,03,10,02,25,5.70
2014,03,10,02,26,5.70
2014,03,10,02,27,5.70
2014,03,10,02,28,5.70
2014,03,10,02,29,5.70
2014,03,10,02,30,5.70
2014,03,10,02,31,5.70
2014,03,10,02,32,5.70
2014,03,10,02,33,5.70
2014,03,10,02,34,5.70
2014,03,10,02,35,5.70
2014,03,10,02,36,5.70
2014,03,10,02,37,5.70
2014,03,10,02,38,5.70
2014,03,10,02,39,5.70
2014,03,10,02,40,5.70
2014,03,10,02,41,5.70
2014,03,10,02,42,5.70
2014,03,10,02,43,5.70
2014,03,10,02,44,5.70
2014,03,10,02,45,5.80
2014,03,10,02,46,5.80
2014,03,10,02,47,5.80
2014,03,10,02,48,5.80
2014,03,10,02,49,5.80
2014,03,10,02,50,5.80
2014,03,10,02,51,5.80
2014,03,10,02,52,5.80
2014,03,10,02,53,5.80
2014,03,10,02,54,5.80
2014,03,10,02,55,5.80
2014,03,10,02,56,5.80
2014,03,10,02,57,5.80
2014,03,10,02,58,5.80
2014,03,10,02,59,5.80
2014,03,10,03,00,5.80
2014,03,10,03,01,5.80
2014,03,10,03,02,5.80
2014,03,10,03,03,5.80
2014,03,10,03,04,5.70
2014,03,10,03,05,5.70
2014,03,10,03,06,5.70
2014,03,10,03,07,5.70
2014,03,10,03,08,5.70
2014,03,10,03,09,5.70
2014,03,10,03,10,5.70
2014,03,10,03,11,5.70
2014,03,10,03,12,5.70
2014,03,10,03,13,5.70
2014,03,10,03,14,5.70
2014,03,10,03,15,5.70
2014,03,10,03,16,5.70
2014,03,10,03,17,5.70
2014,03,10,03,18,5.70
2014,03,10,03,19,5.70
2014,03,10,03,20,5.70
2014,03,10,03,21,5.70
2014,03,10,03,22,5.70
2014,03,10,03,23,5.70
2014,03,10,03,24,5.70
2014,03,10,03,25,5.70
2014,03,10,03,26,5.70
2014,03,10,03,27,5.60
2014,03,10,03,28,5.60
2014,03,10,03,29,5.60
2014,03,10,03,30,5.60
2014,03,10,03,31,5.60
2014,03,10,03,32,5.60
2014,03,10,03,33,5.60
2014,03,10,03,34,5.70
2014,03,10,03,35,5.70
2014,03,10,03,36,5.70
2014,03,10,03,37,5.70
2014,03,10,03,38,5.70
2014,03,10,03,39,5.70
2014,03,10,03,40,5.70
2014,03,10,03,41,5.70
2014,03,10,03,42,5.60
2014,03,10,03,43,5.60
2014,03,10,03,44,5.60
2014,03,10,03,45,5.60
2014,03,10,03,46,5.60
2014,03,10,03,47,5.60
2014,03,10,03,48,5.60
2014,03,10,03,49,5.60
2014,03,10,03,50,5.60
2014,03,10,03,51,5.60
2014,03,10,03,52,5.60
2014,03,10,03,53,5.60
2014,03,10,03,54,5.60
2014,03,10,03,55,5.60
2014,03,10,03,56,5.60
2014,03,10,03,57,5.60
2014,03,10,03,58,5.60
2014,03,10,03,59,5.60
2014,03,10,04,00,5.70
2014,03,10,04,01,5.60
2014,03,10,04,02,5.60
2014,03,10,04,03,5.60
2014,03,10,04,04,5.60
2014,03,10,04,05,5.60
2014,03,10,04,06,5.60
2014,03,10,04,07,5.60
2014,03,10,04,08,5.60
2014,03,10,04,09,5.60
2014,03,10,04,10,5.60
2014,03,10,04,11,5.60
2014,03,10,04,12,5.70
2014,03,10,04,13,5.70
2014,03,10,04,14,5.70
2014,03,10,04,15,5.70
2014,03,10,04,16,5.70
2014,03,10,04,17,5.70
2014,03,10,04,18,5.70
2014,03,10,04,19,5.70
2014,03,10,04,20,5.80
2014,03,10,04,21,5.80
2014,03,10,04,22,5.80
2014,03,10,04,23,5.70
2014,03,10,04,24,5.70
2014,03,10,04,25,5.70
2014,03,10,04,26,5.70
2014,03,10,04,27,5.70
2014,03,10,04,28,5.70
2014,03,10,04,29,5.70
2014,03,10,04,30,5.70
2014,03,10,04,31,5.70
2014,03,10,04,32,5.70
2014,03,10,04,33,5.70
2014,03,10,04,34,5.70
2014,03,10,04,35,5.70
2014,03,10,04,36,5.70
2014,03,10,04,37,5.70
2014,03,10,04,38,5.60
2014,03,10,04,39,5.60
2014,03,10,04,40,5.60
2014,03,10,04,41,5.60
2014,03,10,04,42,5.60
2014,03,10,04,43,5.60
2014,03,10,04,44,5.60
2014,03,10,04,45,5.60
2014,03,10,04,46,5.60
2014,03,10,04,47,5.60
2014,03,10,04,48,5.60
2014,03,10,04,49,5.60
2014,03,10,04,50,5.60
2014,03,10,04,51,5.60
2014,03,10,04,52,5.60
2014,03,10,04,53,5.50
2014,03,10,04,54,5.50
2014,03,10,04,55,5.50
2014,03,10,04,56,5.50
2014,03,10,04,57,5.40
2014,03,10,04,58,5.40
2014,03,10,04,59,5.40
2014,03,10,05,00,5.40
2014,03,10,05,01,5.40
2014,03,10,05,02,5.30
2014,03,10,05,03,5.30
2014,03,10,05,04,5.30
2014,03,10,05,05,5.30
2014,03,10,05,06,5.30
2014,03,10,05,07,5.30
2014,03,10,05,08,5.20
2014,03,10,05,09,5.20
2014,03,10,05,10,5.20
2014,03,10,05,11,5.10
2014,03,10,05,12,5.10
2014,03,10,05,13,5.10
2014,03,10,05,14,5.10
2014,03,10,05,15,5.00
2014,03,10,05,16,5.00
2014,03,10,05,17,5.00
2014,03,10,05,18,5.00
2014,03,10,05,19,5.00
2014,03,10,05,20,5.00
2014,03,10,05,21,4.90
2014,03,10,05,22,4.90
2014,03,10,05,23,4.90
2014,03,10,05,24,4.90
2014,03,10,05,25,4.90
2014,03,10,05,26,5.00
2014,03,10,05,27,5.00
2014,03,10,05,28,5.00
2014,03,10,05,29,5.00
2014,03,10,05,30,5.00
2014,03,10,05,31,5.00
2014,03,10,05,32,5.00
2014,03,10,05,33,5.00
2014,03,10,05,34,4.90
2014,03,10,05,35,4.90
2014,03,10,05,36,4.90
2014,03,10,05,37,4.90
2014,03,10,05,38,4.90
2014,03,10,05,39,4.90
2014,03,10,05,40,4.90
2014,03,10,05,41,4.90
2014,03,10,05,42,4.90
2014,03,10,05,43,4.90
2014,03,10,05,44,4.80
2014,03,10,05,45,4.80
2014,03,10,05,46,4.80
2014,03,10,05,47,4.80
2014,03,10,05,48,4.80
2014,03,10,05,49,4.70
2014,03,10,05,50,4.70
2014,03,10,05,51,4.70
2014,03,10,05,52,4.70
2014,03,10,05,53,4.70
2014,03,10,05,54,4.70
2014,03,10,05,55,4.60
2014,03,10,05,56,4.60
2014,03,10,05,57,4.50
2014,03,10,05,58,4.50
2014,03,10,05,59,4.50
2014,03,10,06,00,4.40
2014,03,10,06,01,4.40
2014,03,10,06,02,4.40
2014,03,10,06,03,4.40
2014,03,10,06,04,4.40
2014,03,10,06,05,4.40
2014,03,10,06,06,4.40
2014,03,10,06,07,4.40
2014,03,10,06,08,4.40
2014,03,10,06,09,4.40
2014,03,10,06,10,4.40
2014,03,10,06,11,4.40
2014,03,10,06,12,4.40
2014,03,10,06,13,4.40
2014,03,10,06,14,4.50
2014,03,10,06,15,4.50
2014,03,10,06,16,4.60
2014,03,10,06,17,4.60
2014,03,10,06,18,4.60
2014,03,10,06,19,4.60
2014,03,10,06,20,4.60
2014,03,10,06,21,4.50
2014,03,10,06,22,4.50
2014,03,10,06,23,4.50
2014,03,10,06,24,4.50
2014,03,10,06,25,4.40
2014,03,10,06,26,4.40
2014,03,10,06,27,4.40
2014,03,10,06,28,4.40
2014,03,10,06,29,4.40
2014,03,10,06,30,4.40
2014,03,10,06,31,4.30
2014,03,10,06,32,4.30
2014,03,10,06,33,4.30
2014,03,10,06,34,4.30
2014,03,10,06,35,4.20
2014,03,10,06,36,4.20
2014,03,10,06,37,4.20
2014,03,10,06,38,4.20
2014,03,10,06,39,4.20
2014,03,10,06,40,4.20
2014,03,10,06,41,4.20
2014,03,10,06,42,4.20
2014,03,10,06,43,4.10
2014,03,10,06,44,4.10
2014,03,10,06,45,4.10
2014,03,10,06,46,4.10
2014,03,10,06,47,4.10
2014,03,10,06,48,4.10
2014,03,10,06,49,4.10
2014,03,10,06,50,4.10
2014,03,10,06,51,4.00
2014,03,10,06,52,4.10
2014,03,10,06,53,4.10
2014,03,10,06,54,4.10
2014,03,10,06,55,4.10
2014,03,10,06,56,4.10
2014,03,10,06,57,4.10
2014,03,10,06,58,4.00
2014,03,10,06,59,4.00
2014,03,10,07,00,4.00
2014,03,10,07,01,4.00
2014,03,10,07,02,4.00
2014,03,10,07,03,4.00
2014,03,10,07,04,4.00
2014,03,10,07,05,4.00
2014,03,10,07,06,4.00
2014,03,10,07,07,4.00
2014,03,10,07,08,4.00
2014,03,10,07,09,4.00
2014,03,10,07,10,4.00
2014,03,10,07,11,4.00
2014,03,10,07,12,4.00
2014,03,10,07,13,4.00
2014,03,10,07,14,4.00
2014,03,10,07,15,3.90
2014,03,10,07,16,3.90
2014,03,10,07,17,3.80
2014,03,10,07,18,3.80
2014,03,10,07,19,3.80
2014,03,10,07,20,3.70
2014,03,10,07,21,3.70
2014,03,10,07,22,3.70
2014,03,10,07,23,3.70
2014,03,10,07,24,3.60
2014,03,10,07,25,3.60
2014,03,10,07,26,3.60
2014,03,10,07,27,3.60
2014,03,10,07,28,3.60
2014,03,10,07,29,3.60
2014,03,10,07,30,3.60
2014,03,10,07,31,3.60
2014,03,10,07,32,3.60
2014,03,10,07,33,3.50
2014,03,10,07,34,3.50
2014,03,10,07,35,3.60
2014,03,10,07,36,3.60
2014,03,10,07,37,3.60
2014,03,10,07,38,3.60
2014,03,10,07,39,3.70
2014,03,10,07,40,3.70
2014,03,10,07,41,3.70
2014,03,10,07,42,3.70
2014,03,10,07,43,3.70
2014,03,10,07,44,3.70
2014,03,10,07,45,3.80
2014,03,10,07,46,3.80
2014,03,10,07,47,3.80
2014,03,10,07,48,3.80
2014,03,10,07,49,3.80
2014,03,10,07,50,3.80
2014,03,10,07,51,3.80
2014,03,10,07,52,3.80
2014,03,10,07,53,3.80
2014,03,10,07,54,3.80
2014,03,10,07,55,3.80
2014,03,10,07,56,3.80
2014,03,10,07,57,3.80
2014,03,10,07,58,3.80
2014,03,10,07,59,3.80
2014,03,10,08,00,3.80
2014,03,10,08,01,3.80
2014,03,10,08,02,3.70
2014,03,10,08,03,3.70
2014,03,10,08,04,3.70
2014,03,10,08,05,3.70
2014,03,10,08,06,3.70
2014,03,10,08,07,3.70
2014,03,10,08,08,3.70
2014,03,10,08,09,3.70
2014,03,10,08,10,3.70
2014,03,10,08,11,3.70
2014,03,10,08,12,3.70
2014,03,10,08,13,3.70
2014,03,10,08,14,3.70
2014,03,10,08,15,3.70
2014,03,10,08,16,3.70
2014,03,10,08,17,3.70
2014,03,10,08,18,3.60
2014,03,10,08,19,3.60
2014,03,10,08,20,3.60
2014,03,10,08,21,3.60
2014,03,10,08,22,3.60
2014,03,10,08,23,3.60
2014,03,10,08,24,3.60
2014,03,10,08,25,3.60
2014,03,10,08,26,3.60
2014,03,10,08,27,3.60
2014,03,10,08,28,3.60
2014,03,10,08,29,3.60
2014,03,10,08,30,3.60
2014,03,10,08,31,3.60
2014,03,10,08,32,3.60
2014,03,10,08,33,3.70
2014,03,10,08,34,3.70
2014,03,10,08,35,3.70
2014,03,10,08,36,3.80
2014,03,10,08,37,3.80
2014,03,10,08,38,3.90
2014,03,10,08,39,3.90
2014,03,10,08,40,3.90
2014,03,10,08,41,3.90
2014,03,10,08,42,4.00
2014,03,10,08,43,4.00
2014,03,10,08,44,4.00
2014,03,10,08,45,4.00
2014,03,10,08,46,4.00
2014,03,10,08,47,4.10
2014,03,10,08,48,4.10
2014,03,10,08,49,4.10
2014,03,10,08,50,4.20
2014,03,10,08,51,4.20
2014,03,10,08,52,4.30
2014,03,10,08,53,4.30
2014,03,10,08,54,4.40
2014,03,10,08,55,4.50
2014,03,10,08,56,4.50
2014,03,10,08,57,4.60
2014,03,10,08,58,4.60
2014,03,10,08,59,4.70
2014,03,10,09,00,4.70
2014,03,10,09,01,4.80
2014,03,10,09,02,4.80
2014,03,10,09,03,4.80
2014,03,10,09,04,4.80
2014,03,10,09,05,4.90
2014,03,10,09,06,4.90
2014,03,10,09,07,4.90
2014,03,10,09,08,5.00
2014,03,10,09,09,5.00
2014,03,10,09,10,5.00
2014,03,10,09,11,5.10
2014,03,10,09,12,5.10
2014,03,10,09,13,5.10
2014,03,10,09,14,5.10
2014,03,10,09,15,5.20
2014,03,10,09,16,5.20
2014,03,10,09,17,5.20
2014,03,10,09,18,5.20
2014,03,10,09,19,5.30
2014,03,10,09,20,5.30
2014,03,10,09,21,5.30
2014,03,10,09,22,5.40
2014,03,10,09,23,5.40
2014,03,10,09,24,5.40
2014,03,10,09,25,5.50
2014,03,10,09,26,5.50
2014,03,10,09,27,5.50
2014,03,10,09,28,5.60
2014,03,10,09,29,5.60
2014,03,10,09,30,5.70
2014,03,10,09,31,5.70
2014,03,10,09,32,5.80
2014,03,10,09,33,5.80
2014,03,10,09,34,5.80
2014,03,10,09,35,5.90
2014,03,10,09,36,5.90
2014,03,10,09,37,6.00
2014,03,10,09,38,6.10
2014,03,10,09,39,6.10
2014,03,10,09,40,6.10
2014,03,10,09,41,6.20
2014,03,10,09,42,6.20
2014,03,10,09,43,6.20
2014,03,10,09,44,6.20
2014,03,10,09,45,6.20
2014,03,10,09,46,6.20
2014,03,10,09,47,6.20
2014,03,10,09,48,6.20
2014,03,10,09,49,6.30
2014,03,10,09,50,6.30
2014,03,10,09,51,6.30
2014,03,10,09,52,6.30
2014,03,10,09,53,6.30
2014,03,10,09,54,6.30
2014,03,10,09,55,6.30
2014,03,10,09,56,6.30
2014,03,10,09,57,6.40
2014,03,10,09,58,6.40
2014,03,10,09,59,6.50
2014,03,10,10,00,6.50
2014,03,10,10,01,6.60
2014,03,10,10,02,6.60
2014,03,10,10,03,6.60
2014,03,10,10,04,6.70
2014,03,10,10,05,6.70
2014,03,10,10,06,6.70
2014,03,10,10,07,6.70
2014,03,10,10,08,6.80
2014,03,10,10,09,6.80
2014,03,10,10,10,6.80
2014,03,10,10,11,6.80
2014,03,10,10,12,6.80
2014,03,10,10,13,6.80
2014,03,10,10,14,6.90
2014,03,10,10,15,6.90
2014,03,10,10,16,6.90
2014,03,10,10,17,6.90
2014,03,10,10,18,6.90
2014,03,10,10,19,6.90
2014,03,10,10,20,6.90
2014,03,10,10,21,6.90
2014,03,10,10,22,7.00
2014,03,10,10,23,7.00
2014,03,10,10,24,7.00
2014,03,10,10,25,7.10
2014,03,10,10,26,7.10
2014,03,10,10,27,7.10
2014,03,10,10,28,7.20
2014,03,10,10,29,7.20
2014,03,10,10,30,7.30
2014,03,10,10,31,7.40
2014,03,10,10,32,7.40
2014,03,10,10,33,7.50
2014,03,10,10,34,7.50
2014,03,10,10,35,7.50
2014,03,10,10,36,7.50
2014,03,10,10,37,7.60
2014,03,10,10,38,7.60
2014,03,10,10,39,7.60
2014,03,10,10,40,7.60
2014,03,10,10,41,7.60
2014,03,10,10,42,7.60
2014,03,10,10,43,7.60
2014,03,10,10,44,7.70
2014,03,10,10,45,7.70
2014,03,10,10,46,7.70
2014,03,10,10,47,7.70
2014,03,10,10,48,7.70
2014,03,10,10,49,7.70
2014,03,10,10,50,7.70
2014,03,10,10,51,7.70
2014,03,10,10,52,7.70
2014,03,10,10,53,7.80
2014,03,10,10,54,7.80
2014,03,10,10,55,7.90
2014,03,10,10,56,7.90
2014,03,10,10,57,7.90
2014,03,10,10,58,8.00
2014,03,10,10,59,8.00
2014,03,10,11,00,8.10
2014,03,10,11,01,8.10
2014,03,10,11,02,8.20
2014,03,10,11,03,8.20
2014,03,10,11,04,8.20
2014,03,10,11,05,8.20
2014,03,10,11,06,8.20
2014,03,10,11,07,8.30
2014,03,10,11,08,8.30
2014,03,10,11,09,8.30
2014,03,10,11,10,8.30
2014,03,10,11,11,8.30
2014,03,10,11,12,8.30
2014,03,10,11,13,8.30
2014,03,10,11,14,8.30
2014,03,10,11,15,8.30
2014,03,10,11,16,8.40
2014,03,10,11,17,8.50
2014,03,10,11,18,8.50
2014,03,10,11,19,8.60
2014,03,10,11,20,8.60
2014,03,10,11,21,8.70
2014,03,10,11,22,8.70
2014,03,10,11,23,8.70
2014,03,10,11,24,8.70
2014,03,10,11,25,8.70
2014,03,10,11,26,8.70
2014,03,10,11,27,8.80
2014,03,10,11,28,8.80
2014,03,10,11,29,8.80
2014,03,10,11,30,8.80
2014,03,10,11,31,8.80
2014,03,10,11,32,8.80
2014,03,10,11,33,8.80
2014,03,10,11,34,8.80
2014,03,10,11,35,8.80
2014,03,10,11,36,8.80
2014,03,10,11,37,8.80
2014,03,10,11,38,8.90
2014,03,10,11,39,8.90
2014,03,10,11,40,9.00
2014,03,10,11,41,9.10
2014,03,10,11,42,9.10
2014,03,10,11,43,9.20
2014,03,10,11,44,9.20
2014,03,10,11,45,9.20
2014,03,10,11,46,9.30
2014,03,10,11,47,9.40
2014,03,10,11,48,9.40
2014,03,10,11,49,9.50
2014,03,10,11,50,9.60
2014,03,10,11,51,9.70
2014,03,10,11,52,9.80
2014,03,10,11,53,9.80
2014,03,10,11,54,10.00
2014,03,10,11,55,10.20
2014,03,10,11,56,10.30
2014,03,10,11,57,10.40
2014,03,10,11,58,10.50
2014,03,10,11,59,10.70
2014,03,10,12,00,10.80
2014,03,10,12,01,10.90
2014,03,10,12,02,11.00
2014,03,10,12,03,11.10
2014,03,10,12,04,11.20
2014,03,10,12,05,11.40
2014,03,10,12,06,11.50
2014,03,10,12,07,11.50
2014,03,10,12,08,11.60
2014,03,10,12,09,11.60
2014,03,10,12,10,11.60
2014,03,10,12,11,11.60
2014,03,10,12,12,11.60
2014,03,10,12,13,11.80
2014,03,10,12,14,11.90
2014,03,10,12,15,12.00
2014,03,10,12,16,12.00
2014,03,10,12,17,12.00
2014,03,10,12,18,11.90
2014,03,10,12,19,11.80
2014,03,10,12,20,11.80
2014,03,10,12,21,11.80
2014,03,10,12,22,11.80
2014,03,10,12,23,11.70
2014,03,10,12,24,11.70
2014,03,10,12,25,11.70
2014,03,10,12,26,11.70
2014,03,10,12,27,11.70
2014,03,10,12,28,11.70
2014,03,10,12,29,11.70
2014,03,10,12,30,11.80
2014,03,10,12,31,11.80
2014,03,10,12,32,11.60
2014,03,10,12,33,11.50
2014,03,10,12,34,11.40
2014,03,10,12,35,11.40
2014,03,10,12,36,11.40
2014,03,10,12,37,11.50
2014,03,10,12,38,11.50
2014,03,10,12,39,11.50
2014,03,10,12,40,11.60
2014,03,10,12,41,11.70
2014,03,10,12,42,11.80
2014,03,10,12,43,11.90
2014,03,10,12,44,12.10
2014,03,10,12,45,12.10
2014,03,10,12,46,12.10
2014,03,10,12,47,11.90
2014,03,10,12,48,11.80
2014,03,10,12,49,11.70
2014,03,10,12,50,11.80
2014,03,10,12,51,11.80
2014,03,10,12,52,11.80
2014,03,10,12,53,11.70
2014,03,10,12,54,11.70
2014,03,10,12,55,11.60
2014,03,10,12,56,11.50
2014,03,10,12,57,11.50
2014,03,10,12,58,11.40
2014,03,10,12,59,11.40
2014,03,10,13,00,11.40
2014,03,10,13,01,11.40
2014,03,10,13,02,11.50
2014,03,10,13,03,11.50
2014,03,10,13,04,11.50
2014,03,10,13,05,11.50
2014,03,10,13,06,11.50
2014,03,10,13,07,11.40
2014,03,10,13,08,11.40
2014,03,10,13,09,11.30
2014,03,10,13,10,11.30
2014,03,10,13,11,11.30
2014,03,10,13,12,11.30
2014,03,10,13,13,11.30
2014,03,10,13,14,11.20
2014,03,10,13,15,11.20
2014,03,10,13,16,11.30
2014,03,10,13,17,11.30
2014,03,10,13,18,11.40
2014,03,10,13,19,11.40
2014,03,10,13,20,11.40
2014,03,10,13,21,11.40
2014,03,10,13,22,11.30
2014,03,10,13,23,11.30
2014,03,10,13,24,11.20
2014,03,10,13,25,11.20
2014,03,10,13,26,11.10
2014,03,10,13,27,11.10
2014,03,10,13,28,11.10
2014,03,10,13,29,11.10
2014,03,10,13,30,11.20
2014,03,10,13,31,11.30
2014,03,10,13,32,11.30
2014,03,10,13,33,11.30
2014,03,10,13,34,11.40
2014,03,10,13,35,11.40
2014,03,10,13,36,11.50
2014,03,10,13,37,11.50
2014,03,10,13,38,11.50
2014,03,10,13,39,11.50
2014,03,10,13,40,11.60
2014,03,10,13,41,11.60
2014,03,10,13,42,11.60
2014,03,10,13,43,11.70
2014,03,10,13,44,11.80
2014,03,10,13,45,11.80
2014,03,10,13,46,11.70
2014,03,10,13,47,11.70
2014,03,10,13,48,11.70
2014,03,10,13,49,11.60
2014,03,10,13,50,11.60
2014,03,10,13,51,11.60
2014,03,10,13,52,11.60
2014,03,10,13,53,11.60
2014,03,10,13,54,11.60
2014,03,10,13,55,11.60
2014,03,10,13,56,11.50
2014,03,10,13,57,11.50
2014,03,10,13,58,11.50
2014,03,10,13,59,11.40
2014,03,10,14,00,11.40
2014,03,10,14,01,11.40
2014,03,10,14,02,11.40
2014,03,10,14,03,11.40
2014,03,10,14,04,11.40
2014,03,10,14,05,11.40
2014,03,10,14,06,11.50
2014,03,10,14,07,11.60
2014,03,10,14,08,11.60
2014,03,10,14,09,11.60
2014,03,10,14,10,11.60
2014,03,10,14,11,11.50
2014,03,10,14,12,11.60
2014,03,10,14,13,11.60
2014,03,10,14,14,11.60
2014,03,10,14,15,11.70
2014,03,10,14,16,11.70
2014,03,10,14,17,11.70
2014,03,10,14,18,11.80
2014,03,10,14,19,11.90
2014,03,10,14,20,11.90
2014,03,10,14,21,11.90
2014,03,10,14,22,11.90
2014,03,10,14,23,11.90
2014,03,10,14,24,11.80
2014,03,10,14,25,11.80
2014,03,10,14,26,11.80
2014,03,10,14,27,11.80
2014,03,10,14,28,11.80
2014,03,10,14,29,11.80
2014,03,10,14,30,11.80
2014,03,10,14,31,11.70
2014,03,10,14,32,11.70
2014,03,10,14,33,11.70
2014,03,10,14,34,11.60
2014,03,10,14,35,11.60
2014,03,10,14,36,11.60
2014,03,10,14,37,11.60
2014,03,10,14,38,11.60
2014,03,10,14,39,11.60
2014,03,10,14,40,11.60
2014,03,10,14,41,11.60
2014,03,10,14,42,11.60
2014,03,10,14,43,11.50
2014,03,10,14,44,11.50
2014,03,10,14,45,11.50
2014,03,10,14,46,11.50
2014,03,10,14,47,11.50
2014,03,10,14,48,11.60
2014,03,10,14,49,11.50
2014,03,10,14,50,11.60
2014,03,10,14,51,11.60
2014,03,10,14,52,11.70
2014,03,10,14,53,11.70
2014,03,10,14,54,11.70
2014,03,10,14,55,11.70
2014,03,10,14,56,11.60
2014,03,10,14,57,11.60
2014,03,10,14,58,11.60
2014,03,10,14,59,11.50
2014,03,10,15,00,11.50
2014,03,10,15,01,11.50
2014,03,10,15,02,11.50
2014,03,10,15,03,11.40
2014,03,10,15,04,11.40
2014,03,10,15,05,11.40
2014,03,10,15,06,11.40
2014,03,10,15,07,11.40
2014,03,10,15,08,11.40
2014,03,10,15,09,11.30
2014,03,10,15,10,11.30
2014,03,10,15,11,11.30
2014,03,10,15,12,11.30
2014,03,10,15,13,11.30
2014,03,10,15,14,11.30
2014,03,10,15,15,11.30
2014,03,10,15,16,11.30
2014,03,10,15,17,11.20
2014,03,10,15,18,11.20
2014,03,10,15,19,11.20
2014,03,10,15,20,11.20
2014,03,10,15,21,11.20
2014,03,10,15,22,11.20
2014,03,10,15,23,11.20
2014,03,10,15,24,11.30
2014,03,10,15,25,11.30
2014,03,10,15,26,11.30
2014,03,10,15,27,11.30
2014,03,10,15,28,11.20
2014,03,10,15,29,11.20
2014,03,10,15,30,11.10
2014,03,10,15,31,11.10
2014,03,10,15,32,11.10
2014,03,10,15,33,11.00
2014,03,10,15,34,11.00
2014,03,10,15,35,11.00
2014,03,10,15,36,10.90
2014,03,10,15,37,10.90
2014,03,10,15,38,10.90
2014,03,10,15,39,10.90
2014,03,10,15,40,10.90
2014,03,10,15,41,10.90
2014,03,10,15,42,10.90
2014,03,10,15,43,10.80
2014,03,10,15,44,10.80
2014,03,10,15,45,10.80
2014,03,10,15,46,10.80
2014,03,10,15,47,10.80
2014,03,10,15,48,10.80
2014,03,10,15,49,10.80
2014,03,10,15,50,10.80
2014,03,10,15,51,10.80
2014,03,10,15,52,10.80
2014,03,10,15,53,10.70
2014,03,10,15,54,10.70
2014,03,10,15,55,10.70
2014,03,10,15,56,10.70
2014,03,10,15,57,10.80
2014,03,10,15,58,10.80
2014,03,10,15,59,10.80
2014,03,10,16,00,10.90
2014,03,10,16,01,10.90
2014,03,10,16,02,10.90
2014,03,10,16,03,10.90
2014,03,10,16,04,10.80
2014,03,10,16,05,10.80
2014,03,10,16,06,10.80
2014,03,10,16,07,10.70
2014,03,10,16,08,10.70
2014,03,10,16,09,10.50
2014,03,10,16,10,10.40
2014,03,10,16,11,10.30
2014,03,10,16,12,10.30
2014,03,10,16,13,10.20
2014,03,10,16,14,10.20
2014,03,10,16,15,10.20
2014,03,10,16,16,10.20
2014,03,10,16,17,10.10
2014,03,10,16,18,10.10
2014,03,10,16,19,10.10
2014,03,10,16,20,10.10
2014,03,10,16,21,10.00
2014,03,10,16,22,10.00
2014,03,10,16,23,10.00
2014,03,10,16,24,9.90
2014,03,10,16,25,9.90
2014,03,10,16,26,9.90
2014,03,10,16,27,9.80
2014,03,10,16,28,9.80
2014,03,10,16,29,9.80
2014,03,10,16,30,9.80
2014,03,10,16,31,9.80
2014,03,10,16,32,9.80
2014,03,10,16,33,9.80
2014,03,10,16,34,9.80
2014,03,10,16,35,9.80
2014,03,10,16,36,9.80
2014,03,10,16,37,9.80
2014,03,10,16,38,9.80
2014,03,10,16,39,9.80
2014,03,10,16,40,9.80
2014,03,10,16,41,9.80
2014,03,10,16,42,9.80
2014,03,10,16,43,9.80
2014,03,10,16,44,9.80
2014,03,10,16,45,9.80
2014,03,10,16,46,9.90
2014,03,10,16,47,9.90
2014,03,10,16,48,9.90
2014,03,10,16,49,9.90
2014,03,10,16,50,10.00
2014,03,10,16,51,10.00
2014,03,10,16,52,10.00
2014,03,10,16,53,10.10
2014,03,10,16,54,10.10
2014,03,10,16,55,10.20
2014,03,10,16,56,10.20
2014,03,10,16,57,10.30
2014,03,10,16,58,10.30
2014,03,10,16,59,10.40
2014,03,10,17,00,10.40
2014,03,10,17,01,10.50
2014,03,10,17,02,10.60
2014,03,10,17,03,10.60
2014,03,10,17,04,10.60
2014,03,10,17,05,10.60
2014,03,10,17,06,10.60
2014,03,10,17,07,10.60
2014,03,10,17,08,10.50
2014,03,10,17,09,10.50
2014,03,10,17,10,10.40
2014,03,10,17,11,10.40
2014,03,10,17,12,10.30
2014,03,10,17,13,10.30
2014,03,10,17,14,10.20
2014,03,10,17,15,10.20
2014,03,10,17,16,10.10
2014,03,10,17,17,10.00
2014,03,10,17,18,9.90
2014,03,10,17,19,9.90
2014,03,10,17,20,9.80
2014,03,10,17,21,9.80
2014,03,10,17,22,9.80
2014,03,10,17,23,9.80
2014,03,10,17,24,9.80
2014,03,10,17,25,9.90
2014,03,10,17,26,9.90
2014,03,10,17,27,9.90
2014,03,10,17,28,9.90
2014,03,10,17,29,9.90
2014,03,10,17,30,9.90
2014,03,10,17,31,10.00
2014,03,10,17,32,10.00
2014,03,10,17,33,10.00
2014,03,10,17,34,10.00
2014,03,10,17,35,10.00
2014,03,10,17,36,10.00
2014,03,10,17,37,10.00
2014,03,10,17,38,10.00
2014,03,10,17,39,10.00
2014,03,10,17,40,9.90
2014,03,10,17,41,9.90
2014,03,10,17,42,9.90
2014,03,10,17,43,9.90
2014,03,10,17,44,9.90
2014,03,10,17,45,9.90
2014,03,10,17,46,9.90
2014,03,10,17,47,9.90
2014,03,10,17,48,9.90
2014,03,10,17,49,10.00
2014,03,10,17,50,10.00
2014,03,10,17,51,10.10
2014,03,10,17,52,10.10